• MPC Preparation (Info)

  • MPEC 2017-Q143: 2017 QP32

    The following Minor Planet Electronic Circular may be linked-to from your own Web pages, but must not otherwise be redistributed electronically.

    A form allowing access to any MPEC is at the bottom of this page.


    Read MPEC 2017-Q142 Read MPEC 2017-Q144


    M.P.E.C. 2017-Q143                               Issued 2017 Aug. 29, 21:07 UT
    
         The Minor Planet Electronic Circulars contain information on unusual
             minor planets and routine data on comets.  They are published
        on behalf of Division F of the International Astronomical Union by the
              Minor Planet Center, Smithsonian Astrophysical Observatory,
                              Cambridge, MA 02138, U.S.A.
    
                 Prepared using the Tamkin Foundation Computer Network
    
                                  MPC@CFA.HARVARD.EDU
                URL https://www.minorplanetcenter.net/    ISSN 1523-6714
    
                                       2017 QP32
    
    Observations:
         K17Q32P  C2017 08 24.37173 20 20 44.896-15 26 15.25         21.1 wLEQ143F51
         K17Q32P  C2017 08 24.39410 20 21 06.501-15 23 01.03         21.0 wLEQ143F51
         K17Q32P  C2017 08 24.40531 20 21 17.286-15 21 23.91         20.8 wLEQ143F51
         K17Q32P* C2017 08 26.29516 20 46 47.856-11 39 54.22         21.2 wLEQ143F51
         K17Q32P  C2017 08 26.30921 20 46 56.146-11 38 35.08         21.1 wLEQ143F51
         K17Q32P  C2017 08 26.32323 20 47 04.347-11 37 16.41         21.4 wLEQ143F51
         K17Q32P _C2017 08 27.38305020 56 58.232-10 07 08.52         21.3 GUEQ143568
         K17Q32P _C2017 08 27.38400120 56 58.668-10 07 04.14         21.2 GUEQ143568
         K17Q32P _C2017 08 27.38495420 56 59.100-10 06 59.77         21.3 GUEQ143568
         K17Q32P _C2017 08 27.38881320 57 00.869-10 06 42.10         21.4 GUEQ143568
         K17Q32P _C2017 08 27.39108120 57 01.917-10 06 31.62         21.5 GUEQ143568
         K17Q32P KC2017 08 29.20040 21 09 48.84 -08 09 45.0          21.8 RqEQ143734
         K17Q32P KC2017 08 29.21339 21 09 53.00 -08 09 02.1          21.7 RqEQ143734
         K17Q32P KC2017 08 29.23932 21 10 01.46 -08 07 37.4          21.5 RqEQ143734
    
    Observer details:
    568 Mauna Kea.  Observers R. J. Wainscoat, L. Wells.  Measurers M. Micheli,
        R. J. Wainscoat.  3.6-m Canada-France-Hawaii Telescope + CCD.
    734 Farpoint Observatory.  Observer G. Hug.  0.69-m reflector + CCD.
    F51 Pan-STARRS 1, Haleakala.  Observers J. Bulger, T. Lowe, A. Schultz,
        M. Willman, T. Goggia.  Measurers K. Chambers, S. Chastel, L. Denneau,
        H. Flewelling, M. Huber, E. Lilly, E. Magnier, R. Wainscoat, C. Waters,
        R. Weryk.  1.8-m Ritchey-Chretien + CCD.
    
    Orbital elements:
    2017 QP32                                                Earth MOID = 0.0078 AU
    Epoch 2017 Sept. 4.0 TT = JDT 2458000.5                 MPC
    M  27.06510              (2000.0)            P               Q
    n   0.43202250     Peri.  289.97971     -0.21104914     +0.97592817
    a   1.7329996      Node   327.68028     -0.85398107     -0.21145799
    e   0.5353612      Incl.    5.90211     -0.47557817     -0.05338276
    P   2.28           H   25.8           G   0.15           U   7
    Residuals in seconds of arc
    170824 F51  0.1+  0.0     170826 F51  0.0   0.2-    170827 568  0.1+  0.1-
    170824 F51  0.0   0.0     170827 568  0.1+  0.1-    170829 734  0.7+  0.1+
    170824 F51  0.1-  0.0     170827 568  0.1+  0.1-    170829 734  0.5-  0.3+
    170826 F51  0.1-  0.1+    170827 568  0.0   0.1-    170829 734  0.3-  0.1-
    170826 F51  0.1+  0.1+    170827 568  0.0   0.2-
    
    Ephemeris:
    2017 QP32                a,e,i = 1.73, 0.54, 6                   q = 0.8052
    Date    TT    R. A. (2000) Decl.     Delta      r     Elong.  Phase     V
    2017 07 30    10 40 12.9 -06 30 57   0.1778  0.8852    39.4   133.2    27.8
    ...
    2017 08 14    12 17 20.0 -20 48 04   0.05216 0.9827    53.3   124.2    24.5
    ...
    2017 08 22    19 21 12.7 -22 51 48   0.04088 1.0430   139.8    38.8    20.5
    ...
    2017 08 28    21 01 49.8 -09 21 53   0.08542 1.0905   159.2    19.2    21.6
    2017 08 29    21 08 35.3 -08 19 51   0.09379 1.0985   159.9    18.4    21.8
    2017 08 30    21 14 15.5 -07 27 44   0.1023  1.1066   160.4    17.8    22.0
    ...
    2017 09 05    21 35 32.5 -04 17 32   0.1554  1.1555   160.0    17.3    23.0
    ...
    2017 09 13    21 49 56.1 -02 27 45   0.2310  1.2215   156.5    19.2    24.0
    ...
    2017 09 28    22 06 37.7 -01 07 40   0.3889  1.3453   147.1    23.9    25.5
    
    A. U. Tomatic                (C) Copyright 2017 MPC           M.P.E.C. 2017-Q143
    

    Read MPEC 2017-Q142 Read MPEC 2017-Q144


    MPEC number:

    Enter an MPEC number in one of the following forms:

    • 1997-B01 (the full form)
    • J97B01 (the packed version of the full form)
    • B01 (the abbreviated form)